RH
9 9 9 9 8 8 8 7 7 7 7 8 9 9 10 9 8 7 8 8 8 11 13 18 26 29 33 36 42 41 41 42 41 36 33 31 28 29 32 42 35 38 47 48 45
11 11 11 11 10 10 9 9 8 8 7 6 7 8 8 8 9 9 10 8 6 5 7 15 19 22 25 31 35 42 46 43 38 37 36 34 30 29 35 42 46 36 41 46 46
11 11 11 10 9 8 7 7 7 7 7 7 6 6 7 8 8 11 10 9 9 8 14 16 17 19 18 23 25 28 35 40 40 38 38 35 29 31 30 33 39 48 39 44 49
9 8 7 6 6 6 6 5 5 5 5 6 6 6 6 7 9 13 9 8 9 10 17 16 15 18 18 16 16 17 18 21 26 27 32 35 30 24 27 30 31 37 39 37 44
8 7 6 5 5 5 5 5 5 5 6 6 6 5 5 9 9 9 8 9 9 12 15 17 18 20 19 16 15 15 14 13 15 18 21 28 30 30 24 28 30 34 40 38 42
9 8 8 7 6 6 6 6 6 6 6 6 6 7 6 7 7 9 11 7 9 13 15 15 15 17 17 16 16 15 14 12 11 10 11 15 19 25 27 28 33 34 39 40 44
9 10 9 8 7 7 8 8 8 8 8 8 8 8 9 8 9 10 11 12 14 13 14 14 14 15 14 16 17 17 17 16 15 14 12 12 13 16 20 24 26 33 39 40 42
9 9 9 9 9 10 10 10 10 9 9 9 9 9 11 10 8 8 9 12 11 9 9 11 11 12 15 14 15 15 15 16 18 18 19 13 11 11 15 17 22 28 36 40 41
10 10 10 11 11 10 11 11 10 10 10 10 12 13 12 9 9 9 9 9 9 10 12 11 11 10 12 15 15 15 13 16 19 19 22 18 12 13 14 14 16 17 18 28 36
14 13 12 13 13 12 12 11 11 10 10 11 12 15 13 12 10 10 10 10 11 10 14 13 12 12 13 14 15 16 18 15 17 19 23 21 19 16 17 16 13 13 14 20 32
17 16 16 16 15 14 12 13 14 16 13 12 13 13 13 12 11 11 10 10 10 10 11 13 15 15 14 16 17 17 16 16 14 17 23 21 20 19 17 17 16 16 14 16 29
20 18 17 17 16 15 14 14 14 14 14 13 13 13 13 12 13 13 11 12 12 11 11 12 13 14 15 14 13 13 15 16 17 18 19 20 24 19 21 22 15 17 20 22 27
21 19 18 18 17 17 17 15 15 14 16 14 14 14 13 12 13 14 12 13 13 13 13 12 11 12 12 12 12 14 16 15 14 17 21 22 25 27 21 21 19 17 20 24 28
22 21 19 18 21 19 19 17 16 15 18 15 15 14 13 13 14 13 12 11 11 13 12 11 11 12 11 10 11 12 13 13 15 18 20 23 22 23 25 24 21 20 20 24 31
22 20 20 19 18 21 20 18 17 18 21 16 15 14 14 13 13 15 13 13 13 13 12 13 12 12 12 11 12 12 12 13 14 18 21 24 25 21 23 24 22 22 19 19 35
23 22 20 19 20 21 20 18 19 20 20 16 14 15 14 15 14 13 14 16 16 17 17 17 18 16 15 11 10 12 13 14 17 20 19 21 21 18 19 22 22 21 19 22 30
22 21 21 19 22 20 20 20 22 20 19 18 17 17 15 16 14 14 14 16 18 21 20 16 21 18 16 15 15 15 19 20 21 21 19 18 17 16 18 20 22 26 30 32 28
24 22 20 20 19 20 20 22 25 22 18 19 19 17 17 16 16 14 15 17 21 20 20 20 19 24 21 22 24 25 20 21 23 20 17 17 20 18 17 26 30 29 28 30 34
29 29 27 25 20 19 21 24 24 23 20 20 19 21 20 20 15 16 17 16 18 21 24 21 22 20 19 30 29 25 21 18 18 19 18 16 20 26 24 25 27 28 33 37 40
30 31 30 25 26 23 22 23 22 21 20 22 23 22 21 22 19 19 17 19 19 22 22 20 24 25 25 25 27 33 31 23 23 25 25 22 25 26 27 30 28 25 37 46 37
31 30 33 26 25 27 27 26 25 26 23 25 26 24 24 25 22 21 20 18 23 25 22 19 25 28 27 29 32 32 36 38 32 36 50 27 22 27 31 36 42 46 57 46 42
34 33 33 26 29 31 28 29 27 26 29 26 25 23 24 27 27 24 23 24 24 23 23 23 24 25 28 29 32 30 48 51 43 52 45 55 49 47 50 44 48 58 44 43 44
35 32 33 29 32 31 31 27 27 28 29 30 32 28 29 27 30 27 27 26 25 26 28 26 25 28 27 31 39 43 44 48 50 43 56 60 38 44 62 72 64 53 42 44 47
34 31 31 34 32 31 30 30 29 29 26 27 29 30 28 32 32 33 30 28 28 29 29 25 29 39 36 35 41 45 45 42 40 42 55 61 52 53 66 71 74 58 55 53 55
36 34 34 32 35 35 32 30 28 30 31 29 28 30 32 34 34 31 30 33 30 31 30 31 37 41 42 38 33 38 37 34 33 39 53 57 57 55 63 69 79 66 75 56 57
38 37 35 31 34 32 32 31 30 27 29 27 33 31 36 34 34 34 34 32 27 24 27 34 39 40 39 39 36 35 35 33 32 32 43 48 44 65 65 64 66 74 69 59 60
42 38 35 33 34 34 32 33 34 31 28 25 26 28 29 31 32 30 25 23 22 26 32 43 46 48 47 48 44 41 37 41 38 55 48 57 57 48 45 58 78 84 71 62 65